PEGASUS DEB, 25449

Orbit data source: Space-Track

PEGASUS DEB, 25449 is space debris in LEO originally from a launch on Thu, 19 May 1994 UTC launched from the Air Force Western Test Range (AFWTR). Debris objects in space refer to the collection of defunct objects orbiting the Earth. Examples of debris include non-operational satellites, rocket bodies, and fragments generated from explosions, collisions, or faulty payload assembly.

Loading next visibility...
Identifier
25449, 1994-029AED
Orbit
LEO
Country
Flag of USUS
Related business
Manufacturer
Unknown
Mission
Spacecraft
Bus & Motor
Unknown
Mass
Unknown
Launch date (UTC)
1994-05-19 (32 years ago)
Launch vehicle
Unknown
Launch site
Air Force Western Test Range (AFWTR)
Object type
Payload
Rocket body
Debris
Shape & HBR
Unknown shape, 0.1 m
Radar Cross Section
Medium (>0.1 m² and <1 m²)

Expand to show TLE details & history
Last TLE update: 23 hours ago

TLE from 23 hours ago
0 PEGASUS DEB
1 25449U 94029AED 26174.70560994  .00002901  00000-0  11800-2 0  9992
2 25449  82.1022 268.1228 0752621 273.4882  78.0533 13.31688511304793
Epoch: 2026-06-23T16:56Z
TLE epoch observation values (Epoch: 2026-06-23T16:56:04.698Z)
Latitude
-0.00012°
Longitude
102.22987°
Altitude
1,067.67 km
Speed
7.355 km/s
True Right ascension
17h 52m 29s
True Declination
0° 00' 00"
Sunlit
Object was in full shadow at epoch
Visualization orbit readout
Latitude
Unknown
Longitude
Unknown
Altitude
Unknown
Speed
Unknown
Apparent Right ascension
Unknown
Apparent Declination
Unknown
Sunlit
N/A
Visualization observer readout
Local Sidereal Time
02:49:47
Azimuth
Unknown
Elevation
Unknown
Doppler factor
Unknown
Orbital elements
Apogee altitude
1,703.272 km
Perigee altitude
571.968 km
Semi-major axis
7,515.757 km
Eccentricity
0.07526
Inclination
82.1022°
RAAN
268.1228°
Arg. of periapsis
273.4882°
True anomaly
86.62617°
Mean anomaly
78.0533°
Eccentric anomaly
82.32689°
Mean motion
3.33107 °/min
Orbital period
108.07 mins
BSTAR
0.00118
Loading maneuver chart data...
Computing Atmospheric mass density...

Documentation

Showing up to 5 results
|